Time,TemperatureF,DewpointF,PressureIn,WindDirection,WindDirectionDegrees,WindSpeedMPH,WindSpeedGustMPH,Humidity,HourlyPrecipIn,Conditions,Clouds,dailyrainin,SolarRadiationWatts/m^2,SoftwareType,DateUTC
2013-09-23 00:05:00,45.0,45.0,-100.00,North,0,2.0,7.0,100,0.00,,,0.02,0.000000,,2013-09-23 04:05:00,
2013-09-23 00:43:00,45.0,45.0,-100.00,North,0,2.0,6.0,100,0.00,,,0.02,0.000000,,2013-09-23 04:43:00,
2013-09-23 00:54:00,45.0,45.0,-100.00,North,0,2.0,6.0,100,0.00,,,0.02,0.000000,,2013-09-23 04:54:00,
2013-09-23 01:03:00,45.0,45.0,-100.00,North,0,2.0,6.0,100,0.00,,,0.02,0.000000,,2013-09-23 05:03:00,
2013-09-23 01:43:00,45.0,45.0,-100.00,North,0,1.0,5.0,100,0.00,,,0.02,0.000000,,2013-09-23 05:43:00,
2013-09-23 01:53:00,45.0,45.0,-100.00,North,0,1.0,5.0,100,0.00,,,0.02,0.000000,,2013-09-23 05:53:00,
2013-09-23 02:02:00,45.0,45.0,-100.00,North,0,1.0,5.0,100,0.00,,,0.02,0.000000,,2013-09-23 06:02:00,
2013-09-23 02:42:00,45.0,45.0,-100.00,North,0,2.0,7.0,100,0.00,,,0.02,0.000000,,2013-09-23 06:42:00,
2013-09-23 02:52:00,45.0,45.0,-100.00,North,0,2.0,7.0,100,0.00,,,0.02,0.000000,,2013-09-23 06:52:00,
2013-09-23 03:01:00,45.0,45.0,-100.00,North,0,2.0,7.0,100,0.00,,,0.02,0.000000,,2013-09-23 07:01:00,
2013-09-23 03:42:00,45.0,45.0,-100.00,North,0,4.0,7.0,100,0.00,,,0.02,0.000000,,2013-09-23 07:42:00,
2013-09-23 03:52:00,45.0,45.0,-100.00,North,0,4.0,7.0,100,0.00,,,0.02,0.000000,,2013-09-23 07:52:00,
2013-09-23 04:02:00,45.0,45.0,-100.00,North,0,4.0,7.0,100,0.00,,,0.02,0.000000,,2013-09-23 08:02:00,
2013-09-23 04:42:00,44.0,44.0,-100.00,North,0,2.0,7.0,100,0.00,,,0.02,0.000000,,2013-09-23 08:42:00,
2013-09-23 04:52:00,44.0,44.0,-100.00,North,0,2.0,7.0,100,0.00,,,0.02,0.000000,,2013-09-23 08:52:00,
2013-09-23 05:02:00,44.0,44.0,-100.00,North,0,2.0,7.0,100,0.00,,,0.02,0.000000,,2013-09-23 09:02:00,
2013-09-23 05:43:00,44.0,44.0,-100.00,North,0,3.0,6.0,100,0.00,,,0.02,0.000000,,2013-09-23 09:43:00,
2013-09-23 05:53:00,44.0,44.0,-100.00,North,0,3.0,6.0,100,0.00,,,0.02,0.000000,,2013-09-23 09:53:00,
2013-09-23 06:03:00,44.0,44.0,-100.00,North,0,3.0,6.0,100,0.00,,,0.02,0.000000,,2013-09-23 10:03:00,
2013-09-23 06:43:00,43.0,43.0,-100.00,North,0,2.0,6.0,100,0.00,,,0.02,0.000000,,2013-09-23 10:43:00,
2013-09-23 06:53:00,43.0,43.0,-100.00,North,0,2.0,6.0,100,0.00,,,0.02,0.000000,,2013-09-23 10:53:00,
2013-09-23 07:03:00,43.0,43.0,-100.00,North,0,2.0,6.0,100,0.00,,,0.02,0.000000,,2013-09-23 11:03:00,
2013-09-23 07:42:00,42.0,42.0,-100.00,North,0,2.0,7.0,100,0.00,,,0.01,1.000000,,2013-09-23 11:42:00,
2013-09-23 07:52:00,42.0,42.0,-100.00,North,0,2.0,7.0,100,0.00,,,0.01,1.000000,,2013-09-23 11:52:00,
2013-09-23 08:02:00,42.0,42.0,-100.00,North,0,2.0,7.0,100,0.00,,,0.01,1.000000,,2013-09-23 12:02:00,
2013-09-23 08:42:00,43.0,43.0,-100.00,North,0,1.0,5.0,100,0.00,,,0.00,14.000000,,2013-09-23 12:42:00,
2013-09-23 08:52:00,43.0,43.0,-100.00,North,0,1.0,5.0,100,0.00,,,0.00,14.000000,,2013-09-23 12:52:00,
2013-09-23 09:02:00,43.0,43.0,-100.00,North,0,1.0,5.0,100,0.00,,,0.00,14.000000,,2013-09-23 13:02:00,
2013-09-23 09:42:00,44.0,44.0,-100.00,North,0,3.0,8.0,100,0.00,,,0.00,58.000000,,2013-09-23 13:42:00,
2013-09-23 09:52:00,44.0,44.0,-100.00,North,0,3.0,8.0,100,0.00,,,0.00,58.000000,,2013-09-23 13:52:00,
2013-09-23 10:02:00,44.0,44.0,-100.00,North,0,3.0,8.0,100,0.00,,,0.00,58.000000,,2013-09-23 14:02:00,
2013-09-23 10:43:00,45.0,45.0,-100.00,North,0,2.0,7.0,100,0.00,,,0.00,116.000000,,2013-09-23 14:43:00,
2013-09-23 10:52:00,45.0,45.0,-100.00,North,0,2.0,7.0,100,0.00,,,0.00,116.000000,,2013-09-23 14:52:00,
2013-09-23 11:02:00,45.0,45.0,-100.00,North,0,2.0,7.0,100,0.00,,,0.00,116.000000,,2013-09-23 15:02:00,
2013-09-23 11:43:00,45.0,45.0,-100.00,North,0,3.0,7.0,100,0.00,,,0.00,157.000000,,2013-09-23 15:43:00,
2013-09-23 11:54:00,45.0,45.0,-100.00,North,0,3.0,7.0,100,0.00,,,0.00,157.000000,,2013-09-23 15:54:00,
2013-09-23 12:04:00,45.0,45.0,-100.00,North,0,3.0,7.0,100,0.00,,,0.00,157.000000,,2013-09-23 16:04:00,
2013-09-23 12:43:00,45.0,44.0,-100.00,North,0,3.0,6.0,98,0.00,,,0.00,185.000000,,2013-09-23 16:43:00,
2013-09-23 12:53:00,45.0,44.0,-100.00,North,0,3.0,6.0,98,0.00,,,0.00,185.000000,,2013-09-23 16:53:00,
2013-09-23 13:03:00,45.0,44.0,-100.00,North,0,3.0,6.0,98,0.00,,,0.00,185.000000,,2013-09-23 17:03:00,
2013-09-23 13:42:00,46.0,43.0,-100.00,North,0,3.0,8.0,90,0.00,,,0.00,262.000000,,2013-09-23 17:42:00,
2013-09-23 13:52:00,46.0,43.0,-100.00,North,0,3.0,8.0,90,0.00,,,0.00,262.000000,,2013-09-23 17:52:00,
2013-09-23 14:02:00,46.0,43.0,-100.00,North,0,3.0,8.0,90,0.00,,,0.00,262.000000,,2013-09-23 18:02:00,
2013-09-23 14:42:00,48.0,43.0,-100.00,North,0,4.0,9.0,84,0.00,,,0.00,370.000000,,2013-09-23 18:42:00,
2013-09-23 14:52:00,48.0,43.0,-100.00,North,0,4.0,9.0,84,0.00,,,0.00,370.000000,,2013-09-23 18:52:00,
2013-09-23 15:02:00,48.0,43.0,-100.00,North,0,4.0,9.0,84,0.00,,,0.00,370.000000,,2013-09-23 19:02:00,
2013-09-23 15:42:00,47.0,43.0,-100.00,North,0,4.0,9.0,86,0.00,,,0.00,318.000000,,2013-09-23 19:42:00,
2013-09-23 15:53:00,47.0,43.0,-100.00,North,0,4.0,9.0,86,0.00,,,0.00,318.000000,,2013-09-23 19:53:00,
2013-09-23 16:03:00,47.0,43.0,-100.00,North,0,4.0,9.0,86,0.00,,,0.00,318.000000,,2013-09-23 20:03:00,
2013-09-23 16:42:00,49.0,43.0,-100.00,North,0,4.0,9.0,81,0.00,,,0.00,437.000000,,2013-09-23 20:42:00,
2013-09-23 16:52:00,49.0,43.0,-100.00,North,0,4.0,9.0,81,0.00,,,0.00,437.000000,,2013-09-23 20:52:00,
2013-09-23 17:02:00,49.0,43.0,-100.00,North,0,4.0,9.0,81,0.00,,,0.00,437.000000,,2013-09-23 21:02:00,
2013-09-23 17:44:00,49.0,42.0,-100.00,North,0,4.0,9.0,77,0.00,,,0.00,460.000000,,2013-09-23 21:44:00,
2013-09-23 17:54:00,49.0,42.0,-100.00,North,0,4.0,9.0,77,0.00,,,0.00,460.000000,,2013-09-23 21:54:00,
2013-09-23 18:04:00,49.0,42.0,-100.00,North,0,4.0,9.0,77,0.00,,,0.00,460.000000,,2013-09-23 22:04:00,
2013-09-23 18:43:00,46.0,41.0,-100.00,North,0,2.0,7.0,83,0.00,,,0.00,200.000000,,2013-09-23 22:43:00,
2013-09-23 18:54:00,46.0,41.0,-100.00,North,0,2.0,7.0,83,0.00,,,0.00,200.000000,,2013-09-23 22:54:00,
2013-09-23 19:03:00,46.0,41.0,-100.00,North,0,2.0,7.0,83,0.00,,,0.00,200.000000,,2013-09-23 23:03:00,
2013-09-23 19:42:00,43.0,43.0,-100.00,North,0,1.0,5.0,100,0.00,,,0.00,27.000000,,2013-09-23 23:42:00,
2013-09-23 19:54:00,43.0,43.0,-100.00,North,0,1.0,5.0,100,0.00,,,0.00,27.000000,,2013-09-23 23:54:00,
2013-09-23 20:01:00,43.0,43.0,-100.00,North,0,1.0,5.0,100,0.00,,,0.00,27.000000,,2013-09-24 00:01:00,
2013-09-23 20:43:00,41.0,41.0,-100.00,North,0,1.0,4.0,100,0.00,,,0.00,1.000000,,2013-09-24 00:43:00,
2013-09-23 20:52:00,41.0,41.0,-100.00,North,0,1.0,4.0,100,0.00,,,0.00,1.000000,,2013-09-24 00:52:00,
2013-09-23 21:02:00,41.0,41.0,-100.00,North,0,1.0,4.0,100,0.00,,,0.00,1.000000,,2013-09-24 01:02:00,
2013-09-23 21:43:00,41.0,41.0,-100.00,North,0,1.0,4.0,100,0.00,,,0.00,0.000000,,2013-09-24 01:43:00,
2013-09-23 21:52:00,41.0,41.0,-100.00,North,0,1.0,4.0,100,0.00,,,0.00,0.000000,,2013-09-24 01:52:00,
2013-09-23 22:02:00,41.0,41.0,-100.00,North,0,1.0,4.0,100,0.00,,,0.00,0.000000,,2013-09-24 02:02:00,
2013-09-23 22:42:00,40.0,40.0,-100.00,North,0,0.0,3.0,100,0.00,,,0.00,0.000000,,2013-09-24 02:42:00,
2013-09-23 22:52:00,40.0,40.0,-100.00,North,0,0.0,3.0,100,0.00,,,0.00,0.000000,,2013-09-24 02:52:00,
2013-09-23 23:03:00,40.0,40.0,-100.00,North,0,0.0,3.0,100,0.00,,,0.00,0.000000,,2013-09-24 03:03:00,
2013-09-23 23:45:00,40.0,40.0,-100.00,North,0,1.0,2.0,100,0.00,,,0.00,0.000000,,2013-09-24 03:45:00,
2013-09-23 23:55:00,40.0,40.0,-100.00,North,0,1.0,2.0,100,0.00,,,0.00,0.000000,,2013-09-24 03:55:00,